DELTA 1 DEB, 21295

Orbit data source: Space-Track

DELTA 1 DEB, 21295 is space debris in SSO originally from a launch on Thu, 12 Jun 1975 UTC launched from the Air Force Western Test Range (AFWTR). Debris objects in space refer to the collection of defunct objects orbiting the Earth. Examples of debris include non-operational satellites, rocket bodies, and fragments generated from explosions, collisions, or faulty payload assembly.

Loading next visibility...
Identifier
21295, 1975-052AG
Orbit
SSO
Country
Flag of USUS
Related business
Manufacturer
Unknown
Mission
Spacecraft
Bus & Motor
Unknown
Mass
Unknown
Launch date (UTC)
1975-06-12 (51 years ago)
Launch vehicle
Unknown
Launch site
Air Force Western Test Range (AFWTR)
Object type
Payload
Rocket body
Debris
Shape & HBR
Unknown shape, 0.2 m
Radar Cross Section
Small (<0.1 m²)

Expand to show TLE details & history
Last TLE update: 15 hours ago

TLE from 15 hours ago
0 DELTA 1 DEB
1 21295U 75052AG  25351.03082584  .00000199  00000-0  42441-3 0  9991
2 21295  99.7348 178.8774 0019567  42.1314 111.3105 13.42904715693316
Epoch: 2025-12-17T00:44Z
TLE epoch observation values (Epoch: 2025-12-17T00:44:23.352Z)
Latitude
25.97469°
Longitude
-93.3566°
Altitude
1,106.853 km
Speed
7.299 km/s
True Right ascension
00h 14m 35s
True Declination
25° 50' 45"
Sunlit
Object was in daylight at epoch
Visualization orbit readout
Latitude
Unknown
Longitude
Unknown
Altitude
Unknown
Speed
Unknown
Apparent Right ascension
Unknown
Apparent Declination
Unknown
Sunlit
N/A
Visualization observer readout
Local Sidereal Time
14:57:48
Azimuth
Unknown
Elevation
Unknown
Doppler factor
Unknown
Orbital elements
Apogee altitude
1,110.415 km
Perigee altitude
1,081.167 km
Semi-major axis
7,473.928 km
Eccentricity
0.00196
Inclination
99.7348°
RAAN
178.8774°
Arg. of periapsis
42.1314°
True anomaly
111.5192°
Mean anomaly
111.3105°
Eccentric anomaly
111.41487°
Mean motion
3.35908 °/min
Orbital period
107.17 mins
BSTAR
0.00042441
Loading maneuver chart data...
Computing Atmospheric mass density...
Loading historical data...
Loading historical data...
Loading historical data...
Loading historical data...
Loading historical data...
Loading historical data...
Loading historical data...

Documentation

Showing up to 5 results
|